Regional Weather Roundup
Issued by NWS Sterling, VA

Home | Current Version | Previous Version | Graphics & Text | Print | Product List | Glossary On
Versions: 1 2 3 4 5 6 7 8 9 10 11 12 13 14 15 16 17 18 19 20 21 22 23 24 25 26 27
000
ASUS41 KLWX 310110
RWRLWX

REGIONAL WEATHER ROUNDUP
NATIONAL WEATHER SERVICE BALTIMORE MD/WASHINGTON DC
900 PM EDT THU OCT 30 2014

Note: "FAIR" indicates few or no clouds below 12,000 feet
with no significant weather and/or obstructions to visibility.
 TC=TEMPERATURE CELSIUS

 * =Non NWS site. Station does not report precipitation (e.g. rain,
    snow, etc.), thunder, or fog.

DCZ001-MDZ009-015-VAZ040>042-051-053>054-310200-
WASHINGTON METRO

CITY           SKY/WX    TMP DP  RH WIND       PRES   REMARKS
WASHINGTON NAT CLOUDY    56  36  47 NW8       30.06S
DULLES         PTCLDY    44  38  79 CALM      30.06S
ANDREWS AFB    CLOUDY    52  38  58 W3        30.04S
FT BELVOIR     CLEAR     50  37  61 NW5       30.06S
QUANTICO       CLEAR     48  39  71 NW8       30.06F
COLLEGE PARK*  CLOUDY    52  41  66 CALM      30.05S
LEESBURG*      PTCLDY    43  39  87 W5        30.06S
MANASSAS*      CLEAR     43  39  87 CALM      30.06S
GAITHERSBURG*  MOCLDY    43  37  81 CALM      30.09S

$$

MDZ006>007-011-014-310200-
BALTIMORE METRO

CITY           SKY/WX    TMP DP  RH WIND       PRES   REMARKS
BWI AIRPORT    MOCLDY    51  38  60 CALM      30.04S
MD SCIENCE CTR   N/A     54  37  52 MISG      30.05S
MARTIN STATE   CLEAR     46  39  76 CALM      30.06S
ANNAPOLIS      CLEAR     48  39  71 CALM      30.04S
FORT MEADE*    CLOUDY    46  43  87 CALM      30.07S

$$

MDZ012-015-019>023-310200-
MARYLAND EASTERN SHORE

CITY           SKY/WX    TMP DP  RH WIND       PRES   REMARKS
OCEAN CITY     PTCLDY    45  40  82 NW3       30.02S
SALISBURY      CLOUDY    54  42  64 N5        30.03S
BAY BRIDGE AP*   N/A     52  39  62 NW3       30.05S
CAMBRIDGE*     CLOUDY    55  39  54 N5        30.03S
EASTON*        CLOUDY    54  41  62 CALM      30.08S

$$

MDZ017>025-310200-
SOUTHERN MARYLAND

CITY           SKY/WX    TMP DP  RH WIND       PRES   REMARKS
PATUXENT RIVER PTCLDY    54  39  57 N8        30.04S
ST INIGOES     CLEAR     52  39  61 CALM      30.03S
LEONARDTOWN*   CLEAR     50  39  66 CALM      30.05S

$$

MDZ003>005-310200-
NORTH CENTRAL MARYLAND

CITY           SKY/WX    TMP DP  RH WIND       PRES   REMARKS
FREDERICK*     MOCLDY    45  39  81 CALM      30.08S
HAGERSTOWN APT CLOUDY    51  35  54 CALM      30.05R
WESTMINSTER*   CLOUDY    48  37  66 NW3       30.04S

$$

MDZ501>502-310200-
WESTERN MARYLAND

CITY           SKY/WX    TMP DP  RH WIND       PRES   REMARKS
OAKLAND*       CLOUDY    37  34  87 CALM      30.03S
CUMBERLAND*    CLOUDY    52  32  46 CALM      30.09S

$$

VAZ025>031-310200-
SHENANDOAH VALLEY

CITY           SKY/WX    TMP DP  RH WIND       PRES   REMARKS
WINCHESTER*    CLOUDY    50  34  53 CALM      30.05S
FRONT ROYAL*   CLOUDY    46  37  71 CALM      30.05S
LURAY*         CLOUDY    48  43  81 CALM      30.06S
NEW MARKET*    MOCLDY    41  37  86 CALM      30.06S
STAUNTON*      CLEAR     39  32  76 CALM      30.07S
WAYNESBORO*    FAIR      39  32  75 CALM      30.05S

$$

WVZ021-048>050-054>055-310200-
EASTERN WEST VIRGINIA PANHANDLE

CITY           SKY/WX    TMP DP  RH WIND       PRES   REMARKS
MARTINSBURG    CLOUDY    50  34  54 CALM      30.05F
PETERSBURG*    CLOUDY    46  33  59 CALM      30.07S

$$

VAZ036>039-050-310200-
CENTRAL FOOTHILLS

CITY           SKY/WX    TMP DP  RH WIND       PRES   REMARKS
CHARLOTTESVILL MOCLDY    47  34  60 CALM      30.05S
CULPEPER*      CLEAR     41  36  81 CALM      30.06S
ORANGE*        CLEAR     43  36  75 CALM      30.07S
GORDONSVILLE*  FAIR      41  36  83 CALM      30.05S
WARRENTON*     FAIR      37  37  99 CALM      30.05S

$$

VAZ055>057-310200-
NORTH AND CENTRAL PIEDMONT

CITY           SKY/WX    TMP DP  RH WIND       PRES   REMARKS
FREDERICKSBRG* CLEAR     46  39  77 CALM      30.05S
STAFFORD*      CLEAR     46  35  65 N5        30.09S

$$

NCZ024-NYZ072-PAZ021-071-VAZ022-071-310200-
OTHER REGIONAL OBSERVATIONS

CITY           SKY/WX    TMP DP  RH WIND       PRES   REMARKS
NEW YORK CITY  CLEAR     51  33  50 VRB5      30.04S
PHILADELPHIA   PTCLDY    50  34  54 N9        30.04R
PITTSBURGH     CLOUDY    46  37  71 W3        30.05S
ROANOKE        CLEAR     49  33  54 CALM      30.04S
RICHMOND       MOCLDY    51  39  63 N6        30.03S
RALEIGH        CLEAR     49  44  83 CALM      29.99F

$$

ANZ530>537-310200-
MARINE OBSERVATIONS

STATION/POSITION TIME  TEMP    WIND        PRES
                       AIR SEA DIR/SP/G
                 (UTC) (F)     (DEG/KT/KT) (MB)
THOMAS PT LIGHT  0100   54 61  320/  7/  8 1018.4S
BALT KEY BRIDGE  0100   55     290/  5/  6 1017.1S
COVE POINT       0100   56      10/ 10/ 14 1017.0S
LEWISETTA        0100   57 62   20/  5/  9 1016.5F
SOLOMONS ISLAND  0100      63                N/A
PINEY POINT      0100           30/  6/  7   N/A

$$




USA.gov is the U.S. government's official web portal to all federal, state and local government web resources and services.